{"data":{"norad_id":40014,"intl_designator":"2014-033E","name":"BUGSAT-1 (TITA)","alt_names":[],"object_type":"PAYLOAD","status":"ACTIVE","operator":null,"country":"ARGN","launch_date":"2014-06-19","launch_site_code":"DLS","launch_vehicle":null,"mission":null,"orbit_class":"UNKNOWN","rcs_meters":0.2726,"size_class":null,"mass_kg":null,"dimensions":null,"purposes":["tech_demo"],"wikipedia_slug":null,"has_3d_model":false,"image_url":null,"decayed_at":null,"tle_current":{"epoch":"2026-09-20T05:06:14.255136Z","epoch_age_seconds":39562,"freshness":"FRESH","line1":"1 40014U 14033E   26263.21266499  .00004248  00000+0  22067-3 0  9995","line2":"2 40014  98.0424   1.3762 0026724 213.8133 146.1395 15.16407697670232","mean_motion":15.16407697,"eccentricity":0.0026724,"inclination_deg":98.0424,"raan_deg":1.3762,"arg_perigee_deg":213.8133,"mean_anomaly_deg":146.1395,"bstar":0.00022067,"rev_number":67023,"period_min":94.961269508776,"perigee_km":498.28243442818,"apogee_km":535.13400315357,"semimajor_km":6894.8452187909,"source":"CELESTRAK","updated_at":"2026-09-20T09:00:47.444756Z"}}}